Location: Unspecified
(49.2170°N, 0.0000°E)
Time: 18:50:02
(UTC+00:00)

A-11 Canister half - Pass Details

Date: 21 January 2021
Orbit: 1516 x 1684 km, 47.2° (Epoch: 05 March)

Event Time Altitude Azimuth Distance (km) Brightness Sun altitude
Rises 20:04:07 0° 207° (SSW) 4,740 11.8 -33.1°
Reaches altitude 10° 20:07:36 10° 198° (SSW) 3,736 11.1 -33.6°
Enters shadow 20:11:53 25° 177° (S) 2,719 10.1 -34.3°
